Weather History for Pierre, SD

Change the Weather History Date:

Saturday, September 14, 2013

  Actual Average Record
Temperature  
Mean Temperature 73 °F 64 °F  
Max Temperature 85 °F 77 °F 102 °F (1948)
Min Temperature 60 °F 50 °F 31 °F (1949)
Degree Days  
Heating Degree Days 0 4  
Month to date heating degree days 1 39  
Since 1 July heating degree days 10 59  
Cooling Degree Days 8 3  
Month to date cooling degree days 126 63  
Year to date cooling degree days 812 840  
Growing Degree Days 22 (Base 50)    
Moisture  
Dew Point 57 °F    
Average Humidity 67    
Maximum Humidity 90    
Minimum Humidity 43    
Precipitation  
Precipitation 0.01 in 0.07 in 0.91 in (2001)
Month to date precipitation 0.07 0.85  
Year to date precipitation 16.99 16.03  
Sea Level Pressure  
Sea Level Pressure 29.81 in    
Wind  
Wind Speed 12 mph (NE)    
Max Wind Speed 25 mph    
Max Gust Speed 30 mph    
Visibility 10 miles    
Events Rain    
T = Trace of Precipitation, MM = Missing Value Source: NWS Daily Summary

Daily Weather History Graph

Daily Weather History Graph

Search for Another Location

Airport:

Trip Planner

Search our weather history database for the weather conditions in past years. The results will help you decide how hot, cold, wet, or windy it might be!

Date:

Astronomy

Sep. 14, 2013 Rise Set
Actual Time 7:19 AM CDT 7:53 PM CDT
Civil Twilight 6:50 AM CDT 8:22 PM CDT
Nautical Twilight 6:15 AM CDT 8:56 PM CDT
Astronomical Twilight 5:39 AM CDT 9:32 PM CDT
Moon 4:44 PM CDT (9/14) 1:43 AM CDT (9/14)
Length of Visible Light 13h 32m
Length of Day
12h 33m
Waxing Gibbous, 72% of the Moon is Illuminated
Sep 14
Waxing Gibbous
Sep 19
Full
Sep 26
Last Quarter
Oct 4
New
Oct 11
First Quarter

Hourly Weather History & Observations

Time (CDT) Temp. Heat Index Dew Point Humidity Pressure Visibility Wind Dir Wind Speed Gust Speed Precip Events Conditions
12:53 AM 66.9 °F - 48.0 °F 51% 29.90 in 10.0 mi SSE 6.9 mph - N/A   Overcast
1:53 AM 66.9 °F - 48.9 °F 52% 29.88 in 10.0 mi SSE 10.4 mph - N/A   Overcast
2:53 AM 66.9 °F - 48.9 °F 52% 29.86 in 10.0 mi SSE 11.5 mph - N/A   Mostly Cloudy
3:53 AM 66.0 °F - 50.0 °F 56% 29.83 in 10.0 mi SSE 11.5 mph - 0.00 in   Overcast
4:53 AM 64.0 °F - 51.1 °F 63% 29.81 in 10.0 mi SE 11.5 mph - 0.00 in Rain Light Rain
5:53 AM 64.0 °F - 51.1 °F 63% 29.80 in 10.0 mi SSE 10.4 mph - 0.00 in   Overcast
6:53 AM 62.1 °F - 52.0 °F 70% 29.80 in 10.0 mi SE 10.4 mph - N/A   Overcast
7:53 AM 62.1 °F - 53.1 °F 72% 29.80 in 10.0 mi SE 10.4 mph - N/A   Scattered Clouds
8:41 AM 62.6 °F - 53.6 °F 72% 29.81 in 10.0 mi SE 10.4 mph - N/A   Overcast
8:53 AM 63.0 °F - 53.1 °F 70% 29.78 in 10.0 mi SE 11.5 mph - N/A   Overcast
9:05 AM 62.6 °F - 53.6 °F 72% 29.81 in 10.0 mi SE 11.5 mph - N/A   Mostly Cloudy
9:53 AM 68.0 °F - 54.0 °F 61% 29.77 in 10.0 mi SSE 12.7 mph - N/A   Scattered Clouds
10:53 AM 70.0 °F - 55.0 °F 59% 29.76 in 10.0 mi South 15.0 mph - N/A   Mostly Cloudy
11:04 AM 69.8 °F - 55.4 °F 60% 29.78 in 10.0 mi South 15.0 mph 21.9 mph N/A   Mostly Cloudy
11:53 AM 75.0 °F - 57.9 °F 55% 29.73 in 10.0 mi SSW 13.8 mph - N/A   Overcast
12:53 PM 77.0 °F - 59.0 °F 54% 29.71 in 10.0 mi SSW 6.9 mph - N/A   Overcast
1:53 PM 80.1 °F 80.9 °F 60.1 °F 50% 29.69 in 10.0 mi WSW 4.6 mph - N/A   Mostly Cloudy
2:53 PM 82.0 °F 82.4 °F 60.1 °F 47% 29.68 in 10.0 mi NNW 5.8 mph - N/A   Overcast
3:53 PM 84.0 °F 83.8 °F 59.0 °F 43% 29.68 in 10.0 mi NW 17.3 mph 21.9 mph N/A   Mostly Cloudy
4:53 PM 81.0 °F 81.6 °F 60.1 °F 49% 29.69 in 10.0 mi North 13.8 mph - N/A   Overcast
5:53 PM 79.0 °F - 60.1 °F 52% 29.70 in 10.0 mi NNW 11.5 mph - N/A   Overcast
6:53 PM 73.9 °F - 59.0 °F 59% 29.73 in 10.0 mi North 18.4 mph - N/A   Overcast
7:53 PM 66.9 °F - 60.1 °F 79% 29.79 in 10.0 mi North 18.4 mph - N/A   Overcast
8:22 PM 66.2 °F - 60.8 °F 83% 29.83 in 10.0 mi North 16.1 mph 25.3 mph N/A   Overcast
8:37 PM 62.6 °F - 60.8 °F 94% 29.84 in 6.0 mi North 21.9 mph 27.6 mph 0.00 in Rain Light Rain
8:44 PM 62.6 °F - 60.8 °F 94% 29.84 in 6.0 mi North 20.7 mph - 0.00 in Rain Light Rain
8:53 PM 63.0 °F - 61.0 °F 93% 29.83 in 10.0 mi North 16.1 mph - 0.00 in Rain Light Rain
9:00 PM 62.6 °F - 60.8 °F 94% 29.85 in 10.0 mi North 20.7 mph - 0.00 in   Overcast
9:10 PM 62.6 °F - 60.8 °F 94% 29.86 in 10.0 mi North 16.1 mph - 0.00 in   Overcast
9:44 PM 62.6 °F - 60.8 °F 94% 29.88 in 10.0 mi North 16.1 mph - 0.01 in   Overcast
9:53 PM 62.1 °F - 59.0 °F 90% 29.86 in 10.0 mi North 15.0 mph - 0.01 in   Overcast
10:19 PM 60.8 °F - 59.0 °F 94% 29.89 in 10.0 mi North 12.7 mph - N/A   Scattered Clouds
10:53 PM 60.1 °F - 57.9 °F 93% 29.89 in 10.0 mi North 9.2 mph - N/A   Partly Cloudy
11:45 PM 60.8 °F - 57.2 °F 88% 29.93 in 10.0 mi North 11.5 mph - N/A   Mostly Cloudy
11:53 PM 60.1 °F - 57.9 °F 93% 29.91 in 10.0 mi North 13.8 mph - N/A   Overcast